Weather in Vagay

Russia / Tyumen Oblast     56°28′25″N   67°18′30″E
temp.,
°C
wind,
m/s
gust,
m/s
humid.,
%
clouds,
%
prec.,
mm/h
press.,
hPa
HPBL,
m
17 may, mon
mon1723:00+22wsw45425 0.0 101550
02:00+19w494123 0.0 1015128
05:00+17w46532 0.0 101680
08:00+24w58405 0.0 1016295
11:00+30w611255 0.0 10153075
14:00+31w9102488 0.0 10143729
17:00+29wnw6122978 0.0 10132572
20:00+25wsw7153435 0.0 1010382
18 may, tue
tue1823:00+18n3769100 0.9 1014178
02:00+18wnw4968100 0.0 1012262
05:00+15w4984100 0.0 1012227
08:00+18wnw586761 0.3 1012480
11:00+22nw5851100 0.4 10121167
14:00+23nnw8104496 0.0 10111930
17:00+19n8957100 0.0 10131219
20:00+13nne71179100 0.0 1016690
19 may, wed
wed1923:00+13nne61071100 0.0 1018950
02:00+10n510820 0.0 1020395
05:00+9nne512785 0.0 1022382
08:00+13nne68472 0.0 10231010
11:00+16nne67332 0.0 10231665
14:00+18nne56305 0.0 10221932
17:00+19n56315 0.0 10222061
20:00+15n36495 0.0 1022115
20 may, thu
thu2023:00+11nne33555 0.0 102430
02:00+9ne226344 0.0 102416
05:00+9s22667 0.0 102411
08:00+15wsw45495 0.0 1024433
11:00+20w67395 0.0 10221409
14:00+23wnw68335 0.0 10201878
17:00+24wnw683211 0.0 10191938
20:00+20w46505 0.0 101869
21 may, fri
fri2123:00+16w49590 0.0 1019119
02:00+15w48600 0.0 1019119
05:00+14w47640 0.0 1020107
08:00+21wnw45450 0.0 1020278
11:00+26w45320 0.0 10191014
14:00+28w55260 0.0 10182317
17:00+28w56270 0.0 10182191
20:00+22w49470 0.0 1018128